Regional Weather Roundup
Issued by NWS State College, PA

Home | Current Version | Previous Version | Graphics & Text | Print | Product List | Glossary On
Versions: 1 2 3 4 5 6 7 8 9 10 11 12 13 14 15 16 17 18 19 20 21 22 23 24 25 26 27 28 29 30 31 32 33 34 35 36 37 38 39 40 41 42 43 44 45 46 47 48 49 50
000
ASUS41 KCTP 051503
RWRCTP

REGIONAL WEATHER ROUNDUP
NATIONAL WEATHER SERVICE STATE COLLEGE PA
1100 AM EDT SUN JUL 05 2015

Note: "fair" indicates few or no clouds below 12,000 feet with no
significant weather and/or obstructions to visibility.

* = STATION THAT DOES NOT REPORT PRECIPITATION /E.G. RAIN...SNOW...ETC/
    THUNDER OR FOG.

PAZ002>004-007>009-013>016-020>023-029>032-051600-
WESTERN PENNSYLVANIA

CITY           SKY/WX    TMP DP  RH WIND       PRES   REMARKS
ERIE           SUNNY     76  56  49 NW7       30.16R
MEADVILLE      SUNNY     71  55  56 VRB3      30.18S
FRANKLIN*      SUNNY     70  52  52 E6        30.19S
NEW CASTLE     FAIR      72  58  61 CALM      30.17F
BEAVER COUNTY  NOT AVBL
BUTLER*        MOSUNNY   70  54  56 E3        30.18S
PITTSBURGH INT CLOUDY    72  59  63 E3        30.15F
PITTSBURGH     MOSUNNY   72  55  55 VRB3      30.15F
INDIANA*       SUNNY     72  61  68 CALM      30.21F
LATROBE        SUNNY     72  64  78 CALM      30.17F
WASHINGTON CO* NOT AVBL
$$

PAZ004>006-010>012-017>019-024>028-033>037-041-042-045-046-049>053-051600-
CENTRAL PENNSYLVANIA

CITY           SKY/WX    TMP DP  RH WIND       PRES   REMARKS
BRADFORD       SUNNY     71  54  54 CALM      30.20R
DUBOIS         MOSUNNY   69  58  67 SE5       30.19S
CLEARFIELD     CLOUDY    62  59  90 E3        30.21S
JOHNSTOWN      SUNNY     70  56  61 VRB3      30.20F
ALTOONA        SUNNY     69  63  81 VRB3      30.19F
STATE COLLEGE  PTSUNNY   70  63  78 CALM      30.19S
WILLIAMSPORT   MOSUNNY   70  60  70 CALM      30.16S
SELINSGROVE    CLOUDY    67  62  84 E3        30.19R
FT INDIANTOWN  CLOUDY    70  63  78 NW6       30.17S
CAPITAL CITY   PTSUNNY   74  63  68 N6        30.16S
HARRISBURG     PTSUNNY   73  65  75 W3        30.16R
YORK           CLOUDY    72  65  78 CALM      30.17S
$$

PAZ038>040-043-044-047-048-054-055-060>062-067>071-051600-
EASTERN PENNSYLVANIA

CITY           SKY/WX    TMP DP  RH WIND       PRES   REMARKS
SCRANTON       PTSUNNY   68  59  73 VRB6      30.18S
MOUNT POCONO   MOSUNNY   69  55  60 NW5       30.20R
ALLENTOWN      MOSUNNY   72  63  73 W5        30.16S
QUAKERTOWN*    MOSUNNY   73  64  73 CALM      30.18R
READING        CLOUDY    71  63  75 N7        30.16S
LANCASTER      MOSUNNY   74  65  73 CALM      30.16S
COATESVILLE    PTSUNNY   73  66  78 NW3       30.18R
POTTSTOWN      PTSUNNY   73  65  75 CALM      30.18R
BLUE BELL      MOSUNNY   77  64  65 NW3       30.16R
DOYLESTOWN     MOSUNNY   74  63  68 NW5       30.16R
WILLOW GROVE   NOT AVBL
NORTH PHILA    MOSUNNY   79  62  56 N5        30.16S
PHILADELPHIA   PTSUNNY   77  61  57 S5        30.15S
$$


USA.gov is the U.S. government's official web portal to all federal, state and local government web resources and services.